Regional Weather Roundup
Issued by NWS

Home | Current Version | Previous Version | Text Only | Print | Product List | Glossary On
Versions: 1 2 3 4 5 6 7 8 9 10 11 12 13 14 15 16 17 18 19 20 21 22 23 24 25 26 27 28 29 30 31 32 33 34 35 36 37 38 39 40 41 42 43 44 45 46 47 48 49 50
246
ASUS44 KJAN 310603
RWRMS

MISSISSIPPI HOURLY WEATHER ROUNDUP
NATIONAL WEATHER SERVICE JACKSON MS
100 AM CDT TUE MAR 31 2015

NOTE: "FAIR: INDICATES FEW OR NO CLOUDS BELOW 12,000 FEET WITH NO
SIGNIFICANT WEATHER AND/OR OBSTRUCTIONS TO VISIBILITY.

MSZ001>002-007>008-010>013-018>021-025>028-034>036-310700-
NORTHWEST MISSISSIPPI

CITY           SKY/WX    TMP DP  RH WIND       PRES   REMARKS
CLARKSDALE       N/A     57  54  88 SE6       30.07F
CLEVELAND      FAIR      59  55  85 S3        30.06F
GREENWOOD      CLEAR     55  50  83 E3        30.07F
6HR MIN TEMP:  55; 6HR MAX TEMP:  74;

GREENVILLE     NOT AVBL
OLIVE BRANCH   CLEAR     50  46  87 CALM      30.06F
OXFORD         FAIR      48  45  87 CALM      30.09F
TUNICA         CLEAR     54  50  87 S6        30.06F
$$

MSZ003>006-009-014>017-022>024-029>033-037>039-310700-
NORTHEAST MISSISSIPPI

CITY           SKY/WX    TMP DP  RH WIND       PRES   REMARKS
COLUMBUS AFB   CLEAR     51  49  91 SE6       30.08F
6HR MIN TEMP:  50; 6HR MAX TEMP:  71; 6HR PCP: TRACE;

CORINTH        FAIR      48  45  87 CALM      30.07F
GOLDN TRIANGLE CLEAR     55  48  76 NW3       30.08F
STARKVILLE     FAIR      52  50  93 CALM      30.09S
TUPELO         CLEAR     52  47  83 CALM      30.08F
6HR MIN TEMP:  50; 6HR MAX TEMP:  70;

$$

MSZ040-058-310700-
CENTRAL MISSISSIPPI

CITY           SKY/WX    TMP DP  RH WIND       PRES   REMARKS
JACKSON INTL   CLEAR     60  57  89 CALM      30.10F
6HR MIN TEMP:  59; 6HR MAX TEMP:  75;

JACKSON HAWKNS CLEAR     61  58  90 VRB3      30.10F
6HR MIN TEMP:  61; 6HR MAX TEMP:  74;

MERIDIAN KEY   CLEAR     56  55  97 S3        30.10F
6HR MIN TEMP:  56; 6HR MAX TEMP:  72;

MERIDIAN NAS   NOT AVBL
RAYMOND        FAIR      59  54  82 MISG      30.09F HAZE
VICKSBURG      CLEAR     61  57  87 S3        30.09F
6HR MIN TEMP:  57; 6HR MAX TEMP:  72;

$$

MSZ059>079-310700-
SOUTH MISSISSIPPI

CITY           SKY/WX    TMP DP  RH WIND       PRES   REMARKS
BROOKHAVEN     FAIR      64  57  77 S5        30.14S
HATTIESBURG    PTCLDY    68  59  73 SW8       30.13S
6HR MIN TEMP:  61; 6HR MAX TEMP:  78;

MCCOMB         CLEAR     64  59  83 SW5       30.13F
6HR MIN TEMP:  62; 6HR MAX TEMP:  76;

NATCHEZ        CLEAR     64  57  77 S5        30.12S
6HR MIN TEMP:  64; 6HR MAX TEMP:  75;

PINE BELT      CLEAR     57  54  88 CALM      30.13S
6HR MIN TEMP:  57; 6HR MAX TEMP:  75;

$$

MSZ080>082-310700-
COASTAL MISSISSIPPI

CITY           SKY/WX    TMP DP  RH WIND       PRES   REMARKS
BILOXI         CLEAR     69  66  92 W8        30.13F
6HR MIN TEMP:  69; 6HR MAX TEMP:  71;

PASCAGOULA     CLEAR     67  64  90 SW3       30.13F
6HR MIN TEMP:  67; 6HR MAX TEMP:  71;

GULFPORT       CLEAR     68  63  84 SW3       30.13F
6HR MIN TEMP:  68; 6HR MAX TEMP:  74;

$$



USA.gov is the U.S. government's official web portal to all federal, state and local government web resources and services.